Time,TemperatureF,DewpointF,PressureIn,WindDirection,WindDirectionDegrees,WindSpeedMPH,WindSpeedGustMPH,Humidity,HourlyPrecipIn,Conditions,Clouds,dailyrainin,SoftwareType,DateUTC
2013-06-07 00:02:00,54.0,38.0,30.23,ENE,77,0.0,0.0,55,0.00,,,0.00,,2013-06-07 06:02:00,
2013-06-07 00:12:00,54.0,38.0,30.23,ENE,77,0.0,0.0,55,0.00,,,0.00,,2013-06-07 06:12:00,
2013-06-07 00:21:00,53.0,38.0,30.23,ENE,77,0.0,1.0,56,0.00,,,0.00,,2013-06-07 06:21:00,
2013-06-07 00:32:00,53.0,38.0,30.23,ENE,77,0.0,1.0,57,0.00,,,0.00,,2013-06-07 06:32:00,
2013-06-07 00:41:00,53.0,38.0,30.23,ENE,77,0.0,1.0,57,0.00,,,0.00,,2013-06-07 06:41:00,
2013-06-07 00:52:00,52.0,38.0,30.23,ENE,77,0.0,1.0,58,0.00,,,0.00,,2013-06-07 06:52:00,
2013-06-07 01:02:00,52.0,38.0,30.23,ENE,77,0.0,1.0,59,0.00,,,0.00,,2013-06-07 07:02:00,
2013-06-07 01:11:00,52.0,38.0,30.23,ENE,77,0.0,1.0,59,0.00,,,0.00,,2013-06-07 07:11:00,
2013-06-07 01:22:00,52.0,38.0,30.22,ENE,77,0.0,0.0,58,0.00,,,0.00,,2013-06-07 07:22:00,
2013-06-07 01:32:00,51.0,37.0,30.22,ENE,77,0.0,1.0,59,0.00,,,0.00,,2013-06-07 07:32:00,
2013-06-07 01:42:00,51.0,37.0,30.22,ENE,77,0.0,1.0,59,0.00,,,0.00,,2013-06-07 07:42:00,
2013-06-07 01:52:00,51.0,38.0,30.22,ENE,77,0.0,1.0,60,0.00,,,0.00,,2013-06-07 07:52:00,
2013-06-07 02:02:00,50.0,38.0,30.22,ENE,77,0.0,0.0,62,0.00,,,0.00,,2013-06-07 08:02:00,
2013-06-07 02:12:00,50.0,38.0,30.22,ENE,77,0.0,0.0,62,0.00,,,0.00,,2013-06-07 08:12:00,
2013-06-07 02:22:00,50.0,38.0,30.21,ENE,77,0.0,0.0,63,0.00,,,0.00,,2013-06-07 08:22:00,
2013-06-07 02:32:00,50.0,38.0,30.22,ENE,77,0.0,0.0,63,0.00,,,0.00,,2013-06-07 08:32:00,
2013-06-07 02:42:00,50.0,38.0,30.22,ENE,77,0.0,0.0,63,0.00,,,0.00,,2013-06-07 08:42:00,
2013-06-07 02:52:00,50.0,38.0,30.21,ENE,77,0.0,0.0,64,0.00,,,0.00,,2013-06-07 08:52:00,
2013-06-07 03:02:00,49.0,38.0,30.20,ENE,77,0.0,0.0,65,0.00,,,0.00,,2013-06-07 09:02:00,
2013-06-07 03:11:00,49.0,38.0,30.20,ENE,77,0.0,0.0,65,0.00,,,0.00,,2013-06-07 09:11:00,
2013-06-07 03:22:00,49.0,37.0,30.20,ENE,77,0.0,0.0,64,0.00,,,0.00,,2013-06-07 09:22:00,
2013-06-07 03:32:00,49.0,38.0,30.20,ENE,77,0.0,1.0,66,0.00,,,0.00,,2013-06-07 09:32:00,
2013-06-07 03:43:00,49.0,38.0,30.20,ENE,77,0.0,1.0,66,0.00,,,0.00,,2013-06-07 09:43:00,
2013-06-07 03:53:00,48.0,37.0,30.20,ENE,77,0.0,0.0,66,0.00,,,0.00,,2013-06-07 09:53:00,
2013-06-07 04:02:00,48.0,38.0,30.20,ENE,77,0.0,0.0,67,0.00,,,0.00,,2013-06-07 10:02:00,
2013-06-07 04:12:00,48.0,38.0,30.20,ENE,77,0.0,0.0,67,0.00,,,0.00,,2013-06-07 10:12:00,
2013-06-07 04:22:00,48.0,38.0,30.20,ENE,77,0.0,1.0,67,0.00,,,0.00,,2013-06-07 10:22:00,
2013-06-07 04:32:00,48.0,38.0,30.21,ENE,77,0.0,1.0,67,0.00,,,0.00,,2013-06-07 10:32:00,
2013-06-07 04:42:00,48.0,38.0,30.21,ENE,77,0.0,1.0,67,0.00,,,0.00,,2013-06-07 10:42:00,
2013-06-07 04:52:00,47.0,37.0,30.21,ENE,77,0.0,0.0,68,0.00,,,0.00,,2013-06-07 10:52:00,
2013-06-07 05:02:00,47.0,37.0,30.21,ENE,77,0.0,0.0,69,0.00,,,0.00,,2013-06-07 11:02:00,
2013-06-07 05:12:00,47.0,37.0,30.21,ENE,77,0.0,0.0,69,0.00,,,0.00,,2013-06-07 11:12:00,
2013-06-07 05:22:00,47.0,38.0,30.21,ENE,77,0.0,0.0,71,0.00,,,0.00,,2013-06-07 11:22:00,
2013-06-07 05:32:00,46.0,37.0,30.21,ENE,77,0.0,0.0,70,0.00,,,0.00,,2013-06-07 11:32:00,
2013-06-07 05:42:00,46.0,37.0,30.21,ENE,77,0.0,0.0,70,0.00,,,0.00,,2013-06-07 11:42:00,
2013-06-07 05:52:00,46.0,37.0,30.22,ENE,77,0.0,0.0,71,0.00,,,0.00,,2013-06-07 11:52:00,
2013-06-07 06:02:00,46.0,37.0,30.22,ENE,77,0.0,1.0,71,0.00,,,0.00,,2013-06-07 12:02:00,
2013-06-07 06:12:00,46.0,37.0,30.22,ENE,77,0.0,1.0,71,0.00,,,0.00,,2013-06-07 12:12:00,
2013-06-07 06:22:00,46.0,37.0,30.22,ENE,77,0.0,0.0,71,0.00,,,0.00,,2013-06-07 12:22:00,
2013-06-07 06:32:00,46.0,37.0,30.21,ENE,77,0.0,1.0,71,0.00,,,0.00,,2013-06-07 12:32:00,
2013-06-07 06:42:00,46.0,37.0,30.21,ENE,77,0.0,1.0,71,0.00,,,0.00,,2013-06-07 12:42:00,
2013-06-07 06:52:00,47.0,38.0,30.21,ENE,77,0.0,0.0,72,0.00,,,0.00,,2013-06-07 12:52:00,
2013-06-07 07:02:00,47.0,39.0,30.21,ENE,77,0.0,0.0,73,0.00,,,0.00,,2013-06-07 13:02:00,
2013-06-07 07:12:00,47.0,39.0,30.21,ENE,77,0.0,0.0,73,0.00,,,0.00,,2013-06-07 13:12:00,
2013-06-07 07:22:00,49.0,40.0,30.22,ENE,77,0.0,0.0,70,0.00,,,0.00,,2013-06-07 13:22:00,
2013-06-07 07:32:00,50.0,40.0,30.21,ENE,77,0.0,0.0,68,0.00,,,0.00,,2013-06-07 13:32:00,
2013-06-07 07:42:00,50.0,40.0,30.21,ENE,77,0.0,0.0,68,0.00,,,0.00,,2013-06-07 13:42:00,
2013-06-07 07:52:00,53.0,41.0,30.22,ENE,77,0.0,0.0,63,0.00,,,0.00,,2013-06-07 13:52:00,
2013-06-07 08:01:00,54.0,40.0,30.22,ENE,77,0.0,0.0,60,0.00,,,0.00,,2013-06-07 14:01:00,
2013-06-07 08:12:00,54.0,40.0,30.22,ENE,77,0.0,0.0,60,0.00,,,0.00,,2013-06-07 14:12:00,
2013-06-07 08:22:00,54.0,42.0,30.23,ENE,77,0.0,0.0,63,0.00,,,0.00,,2013-06-07 14:22:00,
2013-06-07 08:32:00,56.0,42.0,30.22,ENE,77,0.0,1.0,60,0.00,,,0.00,,2013-06-07 14:32:00,
2013-06-07 08:42:00,56.0,42.0,30.22,ENE,77,0.0,1.0,60,0.00,,,0.00,,2013-06-07 14:42:00,
2013-06-07 08:52:00,58.0,42.0,30.23,ENE,75,0.0,1.0,55,0.00,,,0.00,,2013-06-07 14:52:00,
2013-06-07 09:01:00,59.0,44.0,30.23,ENE,73,0.0,2.0,57,0.00,,,0.00,,2013-06-07 15:01:00,
2013-06-07 09:12:00,59.0,44.0,30.23,ENE,73,0.0,2.0,57,0.00,,,0.00,,2013-06-07 15:12:00,
2013-06-07 09:22:00,60.0,42.0,30.24,East,79,0.0,1.0,52,0.00,,,0.00,,2013-06-07 15:22:00,
2013-06-07 09:33:00,61.0,43.0,30.23,WSW,250,0.0,3.0,52,0.00,,,0.00,,2013-06-07 15:33:00,
2013-06-07 09:43:00,61.0,43.0,30.23,WSW,250,0.0,3.0,52,0.00,,,0.00,,2013-06-07 15:43:00,
2013-06-07 09:53:00,63.0,43.0,30.22,WSW,249,0.0,3.0,48,0.00,,,0.00,,2013-06-07 15:53:00,
2013-06-07 10:03:00,64.0,44.0,30.22,WSW,250,0.0,1.0,48,0.00,,,0.00,,2013-06-07 16:03:00,
2013-06-07 10:12:00,64.0,44.0,30.22,WSW,250,0.0,1.0,48,0.00,,,0.00,,2013-06-07 16:12:00,
2013-06-07 10:22:00,66.0,45.0,30.21,WSW,249,0.0,1.0,47,0.00,,,0.00,,2013-06-07 16:22:00,
2013-06-07 10:32:00,67.0,46.0,30.20,WSW,249,0.0,2.0,46,0.00,,,0.00,,2013-06-07 16:32:00,
2013-06-07 10:42:00,67.0,46.0,30.20,WSW,249,0.0,2.0,46,0.00,,,0.00,,2013-06-07 16:42:00,
2013-06-07 10:53:00,70.0,45.0,30.21,East,89,1.0,5.0,40,0.00,,,0.00,,2013-06-07 16:53:00,
2013-06-07 11:02:00,72.0,45.0,30.20,ENE,73,2.0,7.0,38,0.00,,,0.00,,2013-06-07 17:02:00,
2013-06-07 11:12:00,72.0,45.0,30.20,ENE,73,2.0,7.0,38,0.00,,,0.00,,2013-06-07 17:12:00,
2013-06-07 11:22:00,74.0,46.0,30.21,East,86,2.0,7.0,37,0.00,,,0.00,,2013-06-07 17:22:00,
2013-06-07 11:32:00,74.0,45.0,30.21,East,96,2.0,6.0,36,0.00,,,0.00,,2013-06-07 17:32:00,
2013-06-07 11:42:00,74.0,45.0,30.21,East,96,2.0,6.0,36,0.00,,,0.00,,2013-06-07 17:42:00,
2013-06-07 11:52:00,75.0,44.0,30.20,ENE,59,2.0,10.0,33,0.00,,,0.00,,2013-06-07 17:52:00,
2013-06-07 12:02:00,75.0,45.0,30.21,NE,35,2.0,9.0,35,0.00,,,0.00,,2013-06-07 18:02:00,
2013-06-07 12:22:00,76.0,44.0,30.22,ENE,77,2.0,7.0,32,0.00,,,0.00,,2013-06-07 18:22:00,
2013-06-07 12:32:00,74.0,41.0,30.21,ESE,120,2.0,7.0,31,0.00,,,0.00,,2013-06-07 18:32:00,
2013-06-07 12:42:00,74.0,41.0,30.21,ESE,120,2.0,7.0,31,0.00,,,0.00,,2013-06-07 18:42:00,
2013-06-07 12:57:00,75.0,46.0,30.22,SSE,160,3.0,9.0,36,0.00,,,0.00,,2013-06-07 18:57:00,
2013-06-07 13:02:00,75.0,44.0,30.22,SSE,150,3.0,9.0,33,0.00,,,0.00,,2013-06-07 19:02:00,
2013-06-07 13:32:00,75.0,44.0,30.20,East,101,1.0,10.0,33,0.00,,,0.00,,2013-06-07 19:32:00,
2013-06-07 13:43:00,75.0,44.0,30.20,East,101,1.0,10.0,33,0.00,,,0.00,,2013-06-07 19:43:00,
2013-06-07 13:55:00,75.0,44.0,30.20,SE,127,2.0,15.0,33,0.00,,,0.00,,2013-06-07 19:55:00,
2013-06-07 14:02:00,75.0,45.0,30.20,ENE,59,2.0,12.0,34,0.00,,,0.00,,2013-06-07 20:02:00,
2013-06-07 14:22:00,76.0,46.0,30.21,SE,136,2.0,10.0,34,0.00,,,0.00,,2013-06-07 20:22:00,
2013-06-07 14:33:00,76.0,45.0,30.19,NNE,21,4.0,12.0,33,0.00,,,0.00,,2013-06-07 20:33:00,
2013-06-07 14:43:00,76.0,45.0,30.19,NNE,21,4.0,12.0,33,0.00,,,0.00,,2013-06-07 20:43:00,
2013-06-07 14:57:00,78.0,47.0,30.19,ESE,122,3.0,11.0,33,0.00,,,0.00,,2013-06-07 20:57:00,
2013-06-07 15:23:00,77.0,45.0,30.19,South,184,2.0,10.0,32,0.00,,,0.00,,2013-06-07 21:23:00,
2013-06-07 15:43:00,77.0,45.0,30.20,NNW,345,1.0,10.0,32,0.00,,,0.00,,2013-06-07 21:43:00,
2013-06-07 16:03:00,74.0,42.0,30.20,SSE,160,4.0,12.0,32,0.00,,,0.00,,2013-06-07 22:03:00,
2013-06-07 16:13:00,74.0,42.0,30.20,SSE,160,4.0,12.0,32,0.00,,,0.00,,2013-06-07 22:13:00,
2013-06-07 16:24:00,75.0,45.0,30.19,SE,125,1.0,9.0,34,0.00,,,0.00,,2013-06-07 22:24:00,
2013-06-07 16:33:00,75.0,44.0,30.18,NW,316,1.0,12.0,33,0.00,,,0.00,,2013-06-07 22:33:00,
2013-06-07 16:43:00,75.0,44.0,30.18,NW,316,1.0,12.0,33,0.00,,,0.00,,2013-06-07 22:43:00,
2013-06-07 16:57:00,75.0,45.0,30.18,SSW,195,1.0,11.0,34,0.00,,,0.00,,2013-06-07 22:57:00,
2013-06-07 17:03:00,76.0,46.0,30.17,South,169,2.0,11.0,35,0.00,,,0.00,,2013-06-07 23:03:00,
2013-06-07 17:23:00,75.0,44.0,30.17,NE,41,0.0,12.0,33,0.00,,,0.00,,2013-06-07 23:23:00,
2013-06-07 17:32:00,74.0,44.0,30.16,SE,142,4.0,12.0,34,0.00,,,0.00,,2013-06-07 23:32:00,
2013-06-07 17:43:00,74.0,44.0,30.16,SE,142,4.0,12.0,34,0.00,,,0.00,,2013-06-07 23:43:00,
2013-06-07 18:02:00,75.0,45.0,30.14,SSE,156,0.0,9.0,35,0.00,,,0.00,,2013-06-08 00:02:00,
2013-06-07 18:23:00,73.0,44.0,30.15,SSW,193,1.0,6.0,36,0.00,,,0.00,,2013-06-08 00:23:00,
2013-06-07 18:32:00,73.0,48.0,30.14,SE,129,0.0,1.0,41,0.00,,,0.00,,2013-06-08 00:32:00,
2013-06-07 18:43:00,73.0,48.0,30.14,SE,129,0.0,1.0,41,0.00,,,0.00,,2013-06-08 00:43:00,
2013-06-07 18:56:00,72.0,46.0,30.14,ENE,58,0.0,1.0,40,0.00,,,0.00,,2013-06-08 00:56:00,
2013-06-07 19:02:00,72.0,46.0,30.12,ESE,108,1.0,5.0,39,0.00,,,0.00,,2013-06-08 01:02:00,
2013-06-07 19:23:00,72.0,45.0,30.13,ENE,62,2.0,5.0,38,0.00,,,0.00,,2013-06-08 01:23:00,
2013-06-07 19:32:00,71.0,45.0,30.14,SSE,155,1.0,6.0,40,0.00,,,0.00,,2013-06-08 01:32:00,
2013-06-07 19:42:00,71.0,45.0,30.14,SSE,155,1.0,6.0,40,0.00,,,0.00,,2013-06-08 01:42:00,
2013-06-07 19:58:00,71.0,46.0,30.13,SE,134,1.0,4.0,41,0.00,,,0.00,,2013-06-08 01:58:00,
2013-06-07 20:12:00,71.0,44.0,30.12,NNE,28,1.0,5.0,38,0.00,,,0.00,,2013-06-08 02:12:00,
2013-06-07 20:33:00,69.0,43.0,30.13,ENE,63,2.0,4.0,39,0.00,,,0.00,,2013-06-08 02:33:00,
2013-06-07 20:43:00,69.0,43.0,30.13,ENE,63,2.0,4.0,39,0.00,,,0.00,,2013-06-08 02:43:00,
2013-06-07 20:55:00,65.0,45.0,30.11,East,84,0.0,1.0,48,0.00,,,0.00,,2013-06-08 02:55:00,
2013-06-07 21:02:00,64.0,45.0,30.12,East,83,0.0,3.0,50,0.00,,,0.00,,2013-06-08 03:02:00,
2013-06-07 21:12:00,64.0,45.0,30.12,East,83,0.0,3.0,50,0.00,,,0.00,,2013-06-08 03:12:00,
2013-06-07 21:24:00,62.0,45.0,30.11,East,98,0.0,2.0,53,0.00,,,0.00,,2013-06-08 03:24:00,
2013-06-07 21:33:00,61.0,44.0,30.12,East,98,0.0,2.0,53,0.00,,,0.00,,2013-06-08 03:33:00,
2013-06-07 21:44:00,61.0,44.0,30.12,East,98,0.0,2.0,53,0.00,,,0.00,,2013-06-08 03:44:00,
2013-06-07 21:57:00,60.0,43.0,30.11,East,91,0.0,2.0,53,0.00,,,0.00,,2013-06-08 03:57:00,
2013-06-07 22:02:00,60.0,43.0,30.11,East,92,0.0,2.0,53,0.00,,,0.00,,2013-06-08 04:02:00,
2013-06-07 22:12:00,60.0,43.0,30.11,East,92,0.0,2.0,53,0.00,,,0.00,,2013-06-08 04:12:00,
2013-06-07 22:22:00,60.0,43.0,30.11,East,82,1.0,3.0,53,0.00,,,0.00,,2013-06-08 04:22:00,
2013-06-07 22:33:00,60.0,42.0,30.13,East,82,0.0,3.0,52,0.00,,,0.00,,2013-06-08 04:33:00,
2013-06-07 22:42:00,60.0,42.0,30.13,East,82,0.0,3.0,52,0.00,,,0.00,,2013-06-08 04:42:00,
2013-06-07 22:53:00,59.0,42.0,30.12,East,86,0.0,1.0,53,0.00,,,0.00,,2013-06-08 04:53:00,
2013-06-07 23:02:00,59.0,42.0,30.12,East,86,0.0,1.0,53,0.00,,,0.00,,2013-06-08 05:02:00,
2013-06-07 23:12:00,59.0,42.0,30.12,East,86,0.0,1.0,53,0.00,,,0.00,,2013-06-08 05:12:00,
2013-06-07 23:22:00,60.0,43.0,30.12,East,91,0.0,2.0,53,0.00,,,0.00,,2013-06-08 05:22:00,
2013-06-07 23:32:00,59.0,42.0,30.11,East,91,0.0,1.0,53,0.00,,,0.00,,2013-06-08 05:32:00,
2013-06-07 23:42:00,59.0,42.0,30.11,East,91,0.0,1.0,53,0.00,,,0.00,,2013-06-08 05:42:00,
2013-06-07 23:52:00,59.0,42.0,30.11,East,98,1.0,3.0,53,0.00,,,0.00,,2013-06-08 05:52:00,